Hourly Data Report for January 11, 2018

All times are specified in Local Standard Time (LST). Add 1 hour to adjust for Daylight Saving Time where and when it is observed.

KITCHENER/WATERLOO
ONTARIO

43°27'39.000" N
80°22'43.000" W
321.60 m
6144239
71368
YKF

Download Data

Hourly Data (January 2018)
Hourly Data Report for January 11, 2018
Temp Definition
°C
Dew Point Temp Definition
°C
Rel Hum Definition
%
Wind Dir Definition
10's deg

Wind Spd Definition
km/h
Visibility Definition
km
Stn Press Definition
kPa
Hmdx Definition


Wind Chill Definition


Weather Definition


TIME
00:00 5.4 5.1 98 19 26 4.8 97.69     Rain,Fog
01:00 5.4 4.5 94 19 15 16.1 97.65     LegendNANA
02:00 5.1 4.1 93 19 17 16.1 97.64     LegendNANA
03:00 5.7 4.2 90 19 22 16.1 97.67     LegendNANA
04:00 6.5 5.0 90 20 17 16.1 97.68     LegendNANA
05:00 6.3 5.1 92 18 21 16.1 97.66     LegendNANA
06:00 6.2 4.8 90 19 15 16.1 97.67     Rain
07:00 6.3 4.7 90 19 17 16.1 97.68     LegendNANA
08:00 6.2 4.5 89 19 18 16.1 97.71     LegendNANA
09:00 6.4 4.8 89 19 17 16.1 97.72     LegendNANA
10:00 7.0 5.7 92 19 21 16.1 97.73     LegendNANA
11:00 7.4 5.9 90 19 21 16.1 97.73     LegendNANA
12:00 8.5 6.0 84 19 24 16.1 97.61     LegendNANA
13:00 9.0 6.3 83 20 28 16.1 97.54     LegendNANA
14:00 8.9 6.5 85 19 22 16.1 97.48     Rain
15:00 9.1 7.0 86 19 18 16.1 97.45     Rain
16:00 8.6 7.4 92 18 15 16.1 97.38     Rain
17:00 8.9 8.9 100 19 18 8.1 97.35     Rain,Fog
18:00 9.7 9.7 100 18 21 4.0 97.30     Rain,Fog
19:00 9.8 9.8 100 18 18 9.7 97.23     Rain,Fog
20:00 9.8 9.8 100 18 22 2.8 97.20     Rain,Fog
21:00 10.0 10.0 100 18 22 6.4 97.12     Rain,Fog
22:00 10.2 10.2 100 18 21 4.0 97.04     Rain,Fog
23:00 11.0 11.0 100 19 22 4.0 96.97     Rain,Fog

Notes on Data Quality.

Legend

  • E = Estimated
  • M = Missing
  • NA = Not Available
Date modified: